owner,sensor,date,latitude,longitude,sea_surface_height_above_sea_level,qcFlag 
TCOON,ioos:station:TCOON:009:1,2017-05-01T00:18:00Z,27.8398,-97.0727,1.976,1111122 
TCOON,ioos:station:TCOON:009:1,2017-05-01T01:18:00Z,27.8398,-97.0727,1.938,1111122 
TCOON,ioos:station:TCOON:009:1,2017-05-01T02:18:00Z,27.8398,-97.0727,1.862,1111122 
TCOON,ioos:station:TCOON:009:1,2017-05-01T03:18:00Z,27.8398,-97.0727,1.746,1111122 
TCOON,ioos:station:TCOON:009:1,2017-05-01T04:24:00Z,27.8398,-97.0727,1.716,1111122 
TCOON,ioos:station:TCOON:009:1,2017-05-01T05:18:00Z,27.8398,-97.0727,1.681,1111122 
TCOON,ioos:station:TCOON:009:1,2017-05-01T06:18:00Z,27.8398,-97.0727,1.648,1111122 
TCOON,ioos:station:TCOON:009:1,2017-05-01T07:18:00Z,27.8398,-97.0727,1.663,1111122 
TCOON,ioos:station:TCOON:009:1,2017-05-01T08:24:00Z,27.8398,-97.0727,1.671,1111122 
TCOON,ioos:station:TCOON:009:1,2017-05-01T09:24:00Z,27.8398,-97.0727,1.726,1111122 
TCOON,ioos:station:TCOON:009:1,2017-05-01T10:24:00Z,27.8398,-97.0727,1.755,1111122 
TCOON,ioos:station:TCOON:009:1,2017-05-01T11:24:00Z,27.8398,-97.0727,1.874,1111122 
TCOON,ioos:station:TCOON:009:1,2017-05-01T12:24:00Z,27.8398,-97.0727,1.921,1111122 
TCOON,ioos:station:TCOON:009:1,2017-05-01T13:18:00Z,27.8398,-97.0727,1.934,1111122 
TCOON,ioos:station:TCOON:009:1,2017-05-01T14:18:00Z,27.8398,-97.0727,1.937,1111122 
TCOON,ioos:station:TCOON:009:1,2017-05-01T15:18:00Z,27.8398,-97.0727,1.944,1111122 
TCOON,ioos:station:TCOON:009:1,2017-05-01T16:18:00Z,27.8398,-97.0727,1.928,1111122 
TCOON,ioos:station:TCOON:009:1,2017-05-01T17:18:00Z,27.8398,-97.0727,1.914,1111122 
TCOON,ioos:station:TCOON:009:1,2017-05-01T18:18:00Z,27.8398,-97.0727,1.891,1111122 
TCOON,ioos:station:TCOON:009:1,2017-05-01T19:18:00Z,27.8398,-97.0727,1.849,1111122 
TCOON,ioos:station:TCOON:009:1,2017-05-01T20:18:00Z,27.8398,-97.0727,1.847,1111122 
TCOON,ioos:station:TCOON:009:1,2017-05-01T21:18:00Z,27.8398,-97.0727,1.833,1111122 
TCOON,ioos:station:TCOON:009:1,2017-05-01T22:18:00Z,27.8398,-97.0727,1.82,1111122 
TCOON,ioos:station:TCOON:009:1,2017-05-01T23:18:00Z,27.8398,-97.0727,1.788,1111122 
TCOON,ioos:station:TCOON:009:1,2017-05-02T00:18:00Z,27.8398,-97.0727,1.772,1111122 
TCOON,ioos:station:TCOON:009:1,2017-05-02T01:18:00Z,27.8398,-97.0727,1.756,1111122 
TCOON,ioos:station:TCOON:009:1,2017-05-02T02:18:00Z,27.8398,-97.0727,1.73,1111122 
TCOON,ioos:station:TCOON:009:1,2017-05-02T03:18:00Z,27.8398,-97.0727,1.648,1111122 
TCOON,ioos:station:TCOON:009:1,2017-05-02T04:18:00Z,27.8398,-97.0727,1.622,1111122 
TCOON,ioos:station:TCOON:009:1,2017-05-02T05:18:00Z,27.8398,-97.0727,1.563,1111122 
TCOON,ioos:station:TCOON:009:1,2017-05-02T06:18:00Z,27.8398,-97.0727,1.528,1111122 
TCOON,ioos:station:TCOON:009:1,2017-05-02T07:18:00Z,27.8398,-97.0727,1.562,1111122 
TCOON,ioos:station:TCOON:009:1,2017-05-02T08:18:00Z,27.8398,-97.0727,1.521,1111122 
TCOON,ioos:station:TCOON:009:1,2017-05-02T09:18:00Z,27.8398,-97.0727,1.51,1111122 
TCOON,ioos:station:TCOON:009:1,2017-05-02T10:18:00Z,27.8398,-97.0727,1.63,1111122 
TCOON,ioos:station:TCOON:009:1,2017-05-02T11:18:00Z,27.8398,-97.0727,1.701,1111122 
TCOON,ioos:station:TCOON:009:1,2017-05-02T12:18:00Z,27.8398,-97.0727,1.786,1111122 
TCOON,ioos:station:TCOON:009:1,2017-05-02T13:18:00Z,27.8398,-97.0727,1.807,1111122 
TCOON,ioos:station:TCOON:009:1,2017-05-02T14:18:00Z,27.8398,-97.0727,1.86,1111122 
TCOON,ioos:station:TCOON:009:1,2017-05-02T15:18:00Z,27.8398,-97.0727,1.891,1111122 
TCOON,ioos:station:TCOON:009:1,2017-05-02T16:18:00Z,27.8398,-97.0727,1.914,1111122 
TCOON,ioos:station:TCOON:009:1,2017-05-02T17:18:00Z,27.8398,-97.0727,1.901,1111122 
TCOON,ioos:station:TCOON:009:1,2017-05-02T18:18:00Z,27.8398,-97.0727,1.918,1111122 
TCOON,ioos:station:TCOON:009:1,2017-05-02T19:18:00Z,27.8398,-97.0727,1.94,1111122 
TCOON,ioos:station:TCOON:009:1,2017-05-02T20:18:00Z,27.8398,-97.0727,1.953,1111122 
TCOON,ioos:station:TCOON:009:1,2017-05-02T21:18:00Z,27.8398,-97.0727,1.93,1111122 
TCOON,ioos:station:TCOON:009:1,2017-05-02T22:18:00Z,27.8398,-97.0727,1.928,1111122 
TCOON,ioos:station:TCOON:009:1,2017-05-02T23:18:00Z,27.8398,-97.0727,1.929,1111122 
TCOON,ioos:station:TCOON:009:1,2017-05-03T00:18:00Z,27.8398,-97.0727,1.951,1111122 
TCOON,ioos:station:TCOON:009:1,2017-05-03T01:18:00Z,27.8398,-97.0727,1.871,1111122 
TCOON,ioos:station:TCOON:009:1,2017-05-03T02:18:00Z,27.8398,-97.0727,1.952,1111122 
TCOON,ioos:station:TCOON:009:1,2017-05-03T03:18:00Z,27.8398,-97.0727,1.912,1111122 
TCOON,ioos:station:TCOON:009:1,2017-05-03T04:18:00Z,27.8398,-97.0727,1.909,1111122 
TCOON,ioos:station:TCOON:009:1,2017-05-03T05:18:00Z,27.8398,-97.0727,1.857,1111122 
TCOON,ioos:station:TCOON:009:1,2017-05-03T06:18:00Z,27.8398,-97.0727,1.853,1111122 
TCOON,ioos:station:TCOON:009:1,2017-05-03T07:18:00Z,27.8398,-97.0727,1.802,1111122 
TCOON,ioos:station:TCOON:009:1,2017-05-03T08:18:00Z,27.8398,-97.0727,1.765,1111122 
TCOON,ioos:station:TCOON:009:1,2017-05-03T09:18:00Z,27.8398,-97.0727,1.76,1111122 
TCOON,ioos:station:TCOON:009:1,2017-05-03T10:18:00Z,27.8398,-97.0727,1.767,1111122 
TCOON,ioos:station:TCOON:009:1,2017-05-03T11:18:00Z,27.8398,-97.0727,1.852,1111122 
TCOON,ioos:station:TCOON:009:1,2017-05-03T12:18:00Z,27.8398,-97.0727,1.883,1111122 
TCOON,ioos:station:TCOON:009:1,2017-05-03T13:18:00Z,27.8398,-97.0727,1.943,1111122 
TCOON,ioos:station:TCOON:009:1,2017-05-03T14:18:00Z,27.8398,-97.0727,1.963,1111122 
TCOON,ioos:station:TCOON:009:1,2017-05-03T15:18:00Z,27.8398,-97.0727,1.995,1111122 
TCOON,ioos:station:TCOON:009:1,2017-05-03T16:18:00Z,27.8398,-97.0727,2.006,1111122 
TCOON,ioos:station:TCOON:009:1,2017-05-03T17:18:00Z,27.8398,-97.0727,2.015,1111122 
TCOON,ioos:station:TCOON:009:1,2017-05-03T18:18:00Z,27.8398,-97.0727,2.03,1111122 
TCOON,ioos:station:TCOON:009:1,2017-05-03T19:18:00Z,27.8398,-97.0727,2.038,1111122 
TCOON,ioos:station:TCOON:009:1,2017-05-03T20:18:00Z,27.8398,-97.0727,2.027,1111122 
TCOON,ioos:station:TCOON:009:1,2017-05-03T21:18:00Z,27.8398,-97.0727,2.014,1111122 
TCOON,ioos:station:TCOON:009:1,2017-05-04T01:18:00Z,27.8398,-97.0727,1.988,1111122 
TCOON,ioos:station:TCOON:009:1,2017-05-04T02:18:00Z,27.8398,-97.0727,2.007,1111122 
TCOON,ioos:station:TCOON:009:1,2017-05-04T03:18:00Z,27.8398,-97.0727,1.993,1111122 
TCOON,ioos:station:TCOON:009:1,2017-05-04T04:18:00Z,27.8398,-97.0727,1.965,1111122 
TCOON,ioos:station:TCOON:009:1,2017-05-04T05:18:00Z,27.8398,-97.0727,1.927,1111122 
TCOON,ioos:station:TCOON:009:1,2017-05-04T06:18:00Z,27.8398,-97.0727,1.902,1111122 
TCOON,ioos:station:TCOON:009:1,2017-05-04T07:18:00Z,27.8398,-97.0727,1.809,1111122 
TCOON,ioos:station:TCOON:009:1,2017-05-04T08:18:00Z,27.8398,-97.0727,1.837,1111122 
TCOON,ioos:station:TCOON:009:1,2017-05-04T09:18:00Z,27.8398,-97.0727,1.851,1111122 
TCOON,ioos:station:TCOON:009:1,2017-05-04T10:18:00Z,27.8398,-97.0727,1.834,1111122 
TCOON,ioos:station:TCOON:009:1,2017-05-04T11:18:00Z,27.8398,-97.0727,1.868,1111122 
TCOON,ioos:station:TCOON:009:1,2017-05-04T12:18:00Z,27.8398,-97.0727,1.79,1111122 
TCOON,ioos:station:TCOON:009:1,2017-05-04T13:18:00Z,27.8398,-97.0727,1.804,1111122 
TCOON,ioos:station:TCOON:009:1,2017-05-04T14:18:00Z,27.8398,-97.0727,1.912,1111122 
TCOON,ioos:station:TCOON:009:1,2017-05-04T15:18:00Z,27.8398,-97.0727,1.926,1111122 
TCOON,ioos:station:TCOON:009:1,2017-05-04T16:18:00Z,27.8398,-97.0727,1.967,1111122 
TCOON,ioos:station:TCOON:009:1,2017-05-04T17:18:00Z,27.8398,-97.0727,1.923,1111122 
TCOON,ioos:station:TCOON:009:1,2017-05-04T18:18:00Z,27.8398,-97.0727,1.914,1111122 
TCOON,ioos:station:TCOON:009:1,2017-05-04T19:18:00Z,27.8398,-97.0727,1.958,1111122 
TCOON,ioos:station:TCOON:009:1,2017-05-04T20:18:00Z,27.8398,-97.0727,1.966,1111122 
TCOON,ioos:station:TCOON:009:1,2017-05-04T21:18:00Z,27.8398,-97.0727,1.823,1111122 
TCOON,ioos:station:TCOON:009:1,2017-05-04T22:18:00Z,27.8398,-97.0727,1.806,1111122 
TCOON,ioos:station:TCOON:009:1,2017-05-04T23:18:00Z,27.8398,-97.0727,1.872,1111122 
TCOON,ioos:station:TCOON:009:1,2017-05-05T00:18:00Z,27.8398,-97.0727,1.779,1111122 
TCOON,ioos:station:TCOON:009:1,2017-05-05T01:18:00Z,27.8398,-97.0727,1.781,1111122 
TCOON,ioos:station:TCOON:009:1,2017-05-05T02:12:00Z,27.8398,-97.0727,1.735,1111122 
TCOON,ioos:station:TCOON:009:1,2017-05-05T03:18:00Z,27.8398,-97.0727,1.734,1111122 
TCOON,ioos:station:TCOON:009:1,2017-05-05T04:18:00Z,27.8398,-97.0727,1.743,1111122 
TCOON,ioos:station:TCOON:009:1,2017-05-05T05:18:00Z,27.8398,-97.0727,1.689,1111122 
TCOON,ioos:station:TCOON:009:1,2017-05-05T06:18:00Z,27.8398,-97.0727,1.764,1111122 
TCOON,ioos:station:TCOON:009:1,2017-05-05T07:18:00Z,27.8398,-97.0727,1.626,1111122 
TCOON,ioos:station:TCOON:009:1,2017-05-05T08:12:00Z,27.8398,-97.0727,1.667,1111122 
TCOON,ioos:station:TCOON:009:1,2017-05-05T09:18:00Z,27.8398,-97.0727,1.651,1111122 
TCOON,ioos:station:TCOON:009:1,2017-05-05T10:18:00Z,27.8398,-97.0727,1.628,1111122 
TCOON,ioos:station:TCOON:009:1,2017-05-05T11:18:00Z,27.8398,-97.0727,1.584,1111122 
TCOON,ioos:station:TCOON:009:1,2017-05-05T12:18:00Z,27.8398,-97.0727,1.623,1111122 
TCOON,ioos:station:TCOON:009:1,2017-05-05T13:18:00Z,27.8398,-97.0727,1.588,1111122 
TCOON,ioos:station:TCOON:009:1,2017-05-05T14:18:00Z,27.8398,-97.0727,1.667,1111122 
TCOON,ioos:station:TCOON:009:1,2017-05-05T16:24:00Z,27.8398,-97.0727,1.737,1111122 
TCOON,ioos:station:TCOON:009:1,2017-05-05T17:18:00Z,27.8398,-97.0727,1.728,1111122 
TCOON,ioos:station:TCOON:009:1,2017-05-05T18:18:00Z,27.8398,-97.0727,1.733,1111122 
TCOON,ioos:station:TCOON:009:1,2017-05-05T19:18:00Z,27.8398,-97.0727,1.732,1111122 
TCOON,ioos:station:TCOON:009:1,2017-05-05T20:36:00Z,27.8398,-97.0727,1.739,1111122 
TCOON,ioos:station:TCOON:009:1,2017-05-05T21:30:00Z,27.8398,-97.0727,1.697,1111122 
TCOON,ioos:station:TCOON:009:1,2017-05-05T22:30:00Z,27.8398,-97.0727,1.663,1111122 
TCOON,ioos:station:TCOON:009:1,2017-05-05T23:30:00Z,27.8398,-97.0727,1.607,1111122 
TCOON,ioos:station:TCOON:009:1,2017-05-06T00:30:00Z,27.8398,-97.0727,1.626,1111122 
TCOON,ioos:station:TCOON:009:1,2017-05-06T02:00:00Z,27.8398,-97.0727,1.603,1111122 
TCOON,ioos:station:TCOON:009:1,2017-05-06T02:24:00Z,27.8398,-97.0727,1.568,1111122 
TCOON,ioos:station:TCOON:009:1,2017-05-06T03:30:00Z,27.8398,-97.0727,1.637,1111122 
TCOON,ioos:station:TCOON:009:1,2017-05-06T04:42:00Z,27.8398,-97.0727,1.648,1111122 
TCOON,ioos:station:TCOON:009:1,2017-05-06T06:00:00Z,27.8398,-97.0727,1.649,1111122 
TCOON,ioos:station:TCOON:009:1,2017-05-06T06:30:00Z,27.8398,-97.0727,1.675,1111122 
TCOON,ioos:station:TCOON:009:1,2017-05-06T07:18:00Z,27.8398,-97.0727,1.693,1111122 
TCOON,ioos:station:TCOON:009:1,2017-05-06T08:18:00Z,27.8398,-97.0727,1.619,1111122 
TCOON,ioos:station:TCOON:009:1,2017-05-06T09:24:00Z,27.8398,-97.0727,1.612,1111122 
TCOON,ioos:station:TCOON:009:1,2017-05-06T10:30:00Z,27.8398,-97.0727,1.573,1111122 
TCOON,ioos:station:TCOON:009:1,2017-05-06T11:24:00Z,27.8398,-97.0727,1.576,1111122 
TCOON,ioos:station:TCOON:009:1,2017-05-06T12:30:00Z,27.8398,-97.0727,1.543,1111122 
TCOON,ioos:station:TCOON:009:1,2017-05-06T13:24:00Z,27.8398,-97.0727,1.534,1111122 
TCOON,ioos:station:TCOON:009:1,2017-05-06T14:24:00Z,27.8398,-97.0727,1.55,1111122 
TCOON,ioos:station:TCOON:009:1,2017-05-06T15:24:00Z,27.8398,-97.0727,1.595,1111122 
TCOON,ioos:station:TCOON:009:1,2017-05-06T16:24:00Z,27.8398,-97.0727,1.651,1111122 
TCOON,ioos:station:TCOON:009:1,2017-05-06T17:24:00Z,27.8398,-97.0727,1.652,1111122 
TCOON,ioos:station:TCOON:009:1,2017-05-06T18:24:00Z,27.8398,-97.0727,1.658,1111122 
TCOON,ioos:station:TCOON:009:1,2017-05-06T19:30:00Z,27.8398,-97.0727,1.646,1111122 
TCOON,ioos:station:TCOON:009:1,2017-05-06T20:30:00Z,27.8398,-97.0727,1.62,1111122 
TCOON,ioos:station:TCOON:009:1,2017-05-06T21:24:00Z,27.8398,-97.0727,1.614,1111122 
TCOON,ioos:station:TCOON:009:1,2017-05-06T22:24:00Z,27.8398,-97.0727,1.597,1111122 
TCOON,ioos:station:TCOON:009:1,2017-05-06T23:24:00Z,27.8398,-97.0727,1.584,1111122 
TCOON,ioos:station:TCOON:009:1,2017-05-07T00:24:00Z,27.8398,-97.0727,1.516,1111122 
TCOON,ioos:station:TCOON:009:1,2017-05-07T01:24:00Z,27.8398,-97.0727,1.543,1111122 
TCOON,ioos:station:TCOON:009:1,2017-05-07T02:24:00Z,27.8398,-97.0727,1.557,1111122 
TCOON,ioos:station:TCOON:009:1,2017-05-07T03:24:00Z,27.8398,-97.0727,1.58,1111122 
TCOON,ioos:station:TCOON:009:1,2017-05-07T04:24:00Z,27.8398,-97.0727,1.625,1111122 
TCOON,ioos:station:TCOON:009:1,2017-05-07T05:36:00Z,27.8398,-97.0727,1.673,1111122 
TCOON,ioos:station:TCOON:009:1,2017-05-07T06:36:00Z,27.8398,-97.0727,1.706,1111122 
TCOON,ioos:station:TCOON:009:1,2017-05-07T07:30:00Z,27.8398,-97.0727,1.705,1111122 
TCOON,ioos:station:TCOON:009:1,2017-05-07T08:24:00Z,27.8398,-97.0727,1.682,1111122 
TCOON,ioos:station:TCOON:009:1,2017-05-07T09:36:00Z,27.8398,-97.0727,1.682,1111122 
TCOON,ioos:station:TCOON:009:1,2017-05-07T10:24:00Z,27.8398,-97.0727,1.656,1111122 
TCOON,ioos:station:TCOON:009:1,2017-05-07T11:24:00Z,27.8398,-97.0727,1.664,1111122 
TCOON,ioos:station:TCOON:009:1,2017-05-07T12:24:00Z,27.8398,-97.0727,1.639,1111122 
TCOON,ioos:station:TCOON:009:1,2017-05-07T13:24:00Z,27.8398,-97.0727,1.627,1111122 
TCOON,ioos:station:TCOON:009:1,2017-05-07T14:24:00Z,27.8398,-97.0727,1.643,1111122 
TCOON,ioos:station:TCOON:009:1,2017-05-07T15:24:00Z,27.8398,-97.0727,1.637,1111122 
TCOON,ioos:station:TCOON:009:1,2017-05-07T16:36:00Z,27.8398,-97.0727,1.643,1111122 
TCOON,ioos:station:TCOON:009:1,2017-05-07T17:30:00Z,27.8398,-97.0727,1.66,1111122 
TCOON,ioos:station:TCOON:009:1,2017-05-07T18:24:00Z,27.8398,-97.0727,1.66,1111122 
TCOON,ioos:station:TCOON:009:1,2017-05-07T19:24:00Z,27.8398,-97.0727,1.658,1111122 
TCOON,ioos:station:TCOON:009:1,2017-05-07T20:30:00Z,27.8398,-97.0727,1.627,1111122 
TCOON,ioos:station:TCOON:009:1,2017-05-07T21:24:00Z,27.8398,-97.0727,1.586,1111122 
TCOON,ioos:station:TCOON:009:1,2017-05-07T22:24:00Z,27.8398,-97.0727,1.557,1111122 
TCOON,ioos:station:TCOON:009:1,2017-05-07T23:24:00Z,27.8398,-97.0727,1.531,1111122 
TCOON,ioos:station:TCOON:009:1,2017-05-08T00:24:00Z,27.8398,-97.0727,1.461,1111122 
TCOON,ioos:station:TCOON:009:1,2017-05-08T01:24:00Z,27.8398,-97.0727,1.466,1111122 
TCOON,ioos:station:TCOON:009:1,2017-05-08T02:24:00Z,27.8398,-97.0727,1.457,1111122 
TCOON,ioos:station:TCOON:009:1,2017-05-08T03:42:00Z,27.8398,-97.0727,1.508,1111122 
TCOON,ioos:station:TCOON:009:1,2017-05-08T04:30:00Z,27.8398,-97.0727,1.536,1111122 
TCOON,ioos:station:TCOON:009:1,2017-05-08T05:30:00Z,27.8398,-97.0727,1.591,1111122 
TCOON,ioos:station:TCOON:009:1,2017-05-08T06:24:00Z,27.8398,-97.0727,1.621,1111122 
TCOON,ioos:station:TCOON:009:1,2017-05-08T07:24:00Z,27.8398,-97.0727,1.667,1111122 
TCOON,ioos:station:TCOON:009:1,2017-05-08T08:24:00Z,27.8398,-97.0727,1.668,1111122 
TCOON,ioos:station:TCOON:009:1,2017-05-08T09:24:00Z,27.8398,-97.0727,1.688,1111122 
TCOON,ioos:station:TCOON:009:1,2017-05-08T10:24:00Z,27.8398,-97.0727,1.671,1111122 
TCOON,ioos:station:TCOON:009:1,2017-05-08T11:24:00Z,27.8398,-97.0727,1.666,1111122 
TCOON,ioos:station:TCOON:009:1,2017-05-08T12:24:00Z,27.8398,-97.0727,1.664,1111122 
TCOON,ioos:station:TCOON:009:1,2017-05-08T13:24:00Z,27.8398,-97.0727,1.676,1111122 
TCOON,ioos:station:TCOON:009:1,2017-05-08T14:30:00Z,27.8398,-97.0727,1.694,1111122 
TCOON,ioos:station:TCOON:009:1,2017-05-08T15:24:00Z,27.8398,-97.0727,1.703,1111122 
TCOON,ioos:station:TCOON:009:1,2017-05-08T16:24:00Z,27.8398,-97.0727,1.693,1111122 
TCOON,ioos:station:TCOON:009:1,2017-05-08T17:30:00Z,27.8398,-97.0727,1.706,1111122 
TCOON,ioos:station:TCOON:009:1,2017-05-08T18:24:00Z,27.8398,-97.0727,1.719,1111122 
TCOON,ioos:station:TCOON:009:1,2017-05-08T19:24:00Z,27.8398,-97.0727,1.709,1111122 
TCOON,ioos:station:TCOON:009:1,2017-05-08T20:24:00Z,27.8398,-97.0727,1.701,1111122 
TCOON,ioos:station:TCOON:009:1,2017-05-08T21:24:00Z,27.8398,-97.0727,1.668,1111122 
TCOON,ioos:station:TCOON:009:1,2017-05-08T22:24:00Z,27.8398,-97.0727,1.614,1111122 
TCOON,ioos:station:TCOON:009:1,2017-05-08T23:24:00Z,27.8398,-97.0727,1.594,1111122 
TCOON,ioos:station:TCOON:009:1,2017-05-09T00:42:00Z,27.8398,-97.0727,1.54,1111122 
TCOON,ioos:station:TCOON:009:1,2017-05-09T01:30:00Z,27.8398,-97.0727,1.536,1111122 
TCOON,ioos:station:TCOON:009:1,2017-05-09T02:24:00Z,27.8398,-97.0727,1.508,1111122 
TCOON,ioos:station:TCOON:009:1,2017-05-09T03:24:00Z,27.8398,-97.0727,1.515,1111122 
TCOON,ioos:station:TCOON:009:1,2017-05-09T04:24:00Z,27.8398,-97.0727,1.566,1111122 
TCOON,ioos:station:TCOON:009:1,2017-05-09T05:24:00Z,27.8398,-97.0727,1.643,1111122 
TCOON,ioos:station:TCOON:009:1,2017-05-09T06:24:00Z,27.8398,-97.0727,1.687,1111122 
TCOON,ioos:station:TCOON:009:1,2017-05-09T07:24:00Z,27.8398,-97.0727,1.724,1111122 
TCOON,ioos:station:TCOON:009:1,2017-05-09T08:24:00Z,27.8398,-97.0727,1.748,1111122 
TCOON,ioos:station:TCOON:009:1,2017-05-09T09:24:00Z,27.8398,-97.0727,1.76,1111122 
TCOON,ioos:station:TCOON:009:1,2017-05-09T10:24:00Z,27.8398,-97.0727,1.777,1111122 
TCOON,ioos:station:TCOON:009:1,2017-05-09T11:24:00Z,27.8398,-97.0727,1.769,1111122 
TCOON,ioos:station:TCOON:009:1,2017-05-09T12:36:00Z,27.8398,-97.0727,1.749,1111122 
TCOON,ioos:station:TCOON:009:1,2017-05-09T13:42:00Z,27.8398,-97.0727,1.748,1111122 
TCOON,ioos:station:TCOON:009:1,2017-05-09T14:24:00Z,27.8398,-97.0727,1.76,1111122 
TCOON,ioos:station:TCOON:009:1,2017-05-09T15:24:00Z,27.8398,-97.0727,1.77,1111122 
TCOON,ioos:station:TCOON:009:1,2017-05-09T16:18:00Z,27.8398,-97.0727,1.76,1111122 
TCOON,ioos:station:TCOON:009:1,2017-05-09T17:18:00Z,27.8398,-97.0727,1.738,1111122 
TCOON,ioos:station:TCOON:009:1,2017-05-09T18:18:00Z,27.8398,-97.0727,1.783,1111122 
TCOON,ioos:station:TCOON:009:1,2017-05-09T19:18:00Z,27.8398,-97.0727,1.763,1111122 
TCOON,ioos:station:TCOON:009:1,2017-05-09T20:18:00Z,27.8398,-97.0727,1.756,1111122 
TCOON,ioos:station:TCOON:009:1,2017-05-09T21:18:00Z,27.8398,-97.0727,1.726,1111122 
TCOON,ioos:station:TCOON:009:1,2017-05-09T22:18:00Z,27.8398,-97.0727,1.712,1111122 
TCOON,ioos:station:TCOON:009:1,2017-05-09T23:18:00Z,27.8398,-97.0727,1.629,1111122 
TCOON,ioos:station:TCOON:009:1,2017-05-10T00:18:00Z,27.8398,-97.0727,1.585,1111122 
TCOON,ioos:station:TCOON:009:1,2017-05-10T01:18:00Z,27.8398,-97.0727,1.559,1111122 
TCOON,ioos:station:TCOON:009:1,2017-05-10T02:18:00Z,27.8398,-97.0727,1.53,1111122 
TCOON,ioos:station:TCOON:009:1,2017-05-10T03:18:00Z,27.8398,-97.0727,1.536,1111122 
TCOON,ioos:station:TCOON:009:1,2017-05-10T04:18:00Z,27.8398,-97.0727,1.558,1111122 
TCOON,ioos:station:TCOON:009:1,2017-05-10T05:18:00Z,27.8398,-97.0727,1.616,1111122 
TCOON,ioos:station:TCOON:009:1,2017-05-10T06:18:00Z,27.8398,-97.0727,1.66,1111122 
TCOON,ioos:station:TCOON:009:1,2017-05-10T07:18:00Z,27.8398,-97.0727,1.663,1111122 
TCOON,ioos:station:TCOON:009:1,2017-05-10T08:18:00Z,27.8398,-97.0727,1.788,1111122 
TCOON,ioos:station:TCOON:009:1,2017-05-10T09:18:00Z,27.8398,-97.0727,1.777,1111122 
TCOON,ioos:station:TCOON:009:1,2017-05-10T10:18:00Z,27.8398,-97.0727,1.8,1111122 
TCOON,ioos:station:TCOON:009:1,2017-05-10T11:18:00Z,27.8398,-97.0727,1.786,1111122 
TCOON,ioos:station:TCOON:009:1,2017-05-10T12:18:00Z,27.8398,-97.0727,1.784,1111122 
TCOON,ioos:station:TCOON:009:1,2017-05-10T13:18:00Z,27.8398,-97.0727,1.774,1111122 
TCOON,ioos:station:TCOON:009:1,2017-05-10T14:18:00Z,27.8398,-97.0727,1.786,1111122 
TCOON,ioos:station:TCOON:009:1,2017-05-10T15:18:00Z,27.8398,-97.0727,1.804,1111122 
TCOON,ioos:station:TCOON:009:1,2017-05-10T16:18:00Z,27.8398,-97.0727,1.778,1111122 
TCOON,ioos:station:TCOON:009:1,2017-05-10T17:18:00Z,27.8398,-97.0727,1.784,1111122 
TCOON,ioos:station:TCOON:009:1,2017-05-10T18:42:00Z,27.8398,-97.0727,1.803,1111122 
TCOON,ioos:station:TCOON:009:1,2017-05-10T19:18:00Z,27.8398,-97.0727,1.796,1111122 
TCOON,ioos:station:TCOON:009:1,2017-05-10T20:18:00Z,27.8398,-97.0727,1.803,1111122 
TCOON,ioos:station:TCOON:009:1,2017-05-10T21:18:00Z,27.8398,-97.0727,1.813,1111122 
TCOON,ioos:station:TCOON:009:1,2017-05-10T22:18:00Z,27.8398,-97.0727,1.723,1111122 
TCOON,ioos:station:TCOON:009:1,2017-05-10T23:18:00Z,27.8398,-97.0727,1.669,1111122 
TCOON,ioos:station:TCOON:009:1,2017-05-11T00:18:00Z,27.8398,-97.0727,1.61,1111122 
TCOON,ioos:station:TCOON:009:1,2017-05-11T01:18:00Z,27.8398,-97.0727,1.589,1111122 
TCOON,ioos:station:TCOON:009:1,2017-05-11T02:18:00Z,27.8398,-97.0727,1.571,1111122 
TCOON,ioos:station:TCOON:009:1,2017-05-11T03:18:00Z,27.8398,-97.0727,1.56,1111122 
TCOON,ioos:station:TCOON:009:1,2017-05-11T04:18:00Z,27.8398,-97.0727,1.576,1111122 
TCOON,ioos:station:TCOON:009:1,2017-05-11T05:18:00Z,27.8398,-97.0727,1.604,1111122 
TCOON,ioos:station:TCOON:009:1,2017-05-11T06:18:00Z,27.8398,-97.0727,1.667,1111122 
TCOON,ioos:station:TCOON:009:1,2017-05-11T07:18:00Z,27.8398,-97.0727,1.74,1111122 
TCOON,ioos:station:TCOON:009:1,2017-05-11T08:18:00Z,27.8398,-97.0727,1.779,1111122 
TCOON,ioos:station:TCOON:009:1,2017-05-11T09:18:00Z,27.8398,-97.0727,1.821,1111122 
TCOON,ioos:station:TCOON:009:1,2017-05-11T10:18:00Z,27.8398,-97.0727,1.842,1111122 
TCOON,ioos:station:TCOON:009:1,2017-05-11T11:18:00Z,27.8398,-97.0727,1.819,1111122 
TCOON,ioos:station:TCOON:009:1,2017-05-11T12:18:00Z,27.8398,-97.0727,1.823,1111122 
TCOON,ioos:station:TCOON:009:1,2017-05-11T13:18:00Z,27.8398,-97.0727,1.815,1111122 
TCOON,ioos:station:TCOON:009:1,2017-05-11T14:18:00Z,27.8398,-97.0727,1.82,1111122 
TCOON,ioos:station:TCOON:009:1,2017-05-11T15:18:00Z,27.8398,-97.0727,1.821,1111122 
TCOON,ioos:station:TCOON:009:1,2017-05-11T16:18:00Z,27.8398,-97.0727,1.805,1111122 
TCOON,ioos:station:TCOON:009:1,2017-05-11T17:18:00Z,27.8398,-97.0727,1.783,1111122 
TCOON,ioos:station:TCOON:009:1,2017-05-11T18:18:00Z,27.8398,-97.0727,1.741,1111122 
TCOON,ioos:station:TCOON:009:1,2017-05-11T19:18:00Z,27.8398,-97.0727,1.777,1111122 
TCOON,ioos:station:TCOON:009:1,2017-05-11T20:18:00Z,27.8398,-97.0727,1.748,1111122 
TCOON,ioos:station:TCOON:009:1,2017-05-11T21:18:00Z,27.8398,-97.0727,1.751,1111122 
TCOON,ioos:station:TCOON:009:1,2017-05-11T22:18:00Z,27.8398,-97.0727,1.704,1111122 
TCOON,ioos:station:TCOON:009:1,2017-05-11T23:18:00Z,27.8398,-97.0727,1.617,1111122 
TCOON,ioos:station:TCOON:009:1,2017-05-12T00:18:00Z,27.8398,-97.0727,1.577,1111122 
TCOON,ioos:station:TCOON:009:1,2017-05-12T01:18:00Z,27.8398,-97.0727,1.547,1111122 
TCOON,ioos:station:TCOON:009:1,2017-05-12T02:18:00Z,27.8398,-97.0727,1.525,1111122 
TCOON,ioos:station:TCOON:009:1,2017-05-12T03:18:00Z,27.8398,-97.0727,1.493,1111122 
TCOON,ioos:station:TCOON:009:1,2017-05-12T04:18:00Z,27.8398,-97.0727,1.511,1111122 
TCOON,ioos:station:TCOON:009:1,2017-05-12T05:18:00Z,27.8398,-97.0727,1.534,1111122 
TCOON,ioos:station:TCOON:009:1,2017-05-12T06:18:00Z,27.8398,-97.0727,1.576,1111122 
TCOON,ioos:station:TCOON:009:1,2017-05-12T07:18:00Z,27.8398,-97.0727,1.621,1111122 
TCOON,ioos:station:TCOON:009:1,2017-05-12T08:18:00Z,27.8398,-97.0727,1.704,1111122 
TCOON,ioos:station:TCOON:009:1,2017-05-12T09:18:00Z,27.8398,-97.0727,1.777,1111122 
TCOON,ioos:station:TCOON:009:1,2017-05-12T10:18:00Z,27.8398,-97.0727,1.787,1111122 
TCOON,ioos:station:TCOON:009:1,2017-05-12T11:18:00Z,27.8398,-97.0727,1.781,1111122 
TCOON,ioos:station:TCOON:009:1,2017-05-12T12:18:00Z,27.8398,-97.0727,1.789,1111122 
TCOON,ioos:station:TCOON:009:1,2017-05-12T13:18:00Z,27.8398,-97.0727,1.803,1111122 
TCOON,ioos:station:TCOON:009:1,2017-05-12T14:24:00Z,27.8398,-97.0727,1.83,1111122 
TCOON,ioos:station:TCOON:009:1,2017-05-12T15:24:00Z,27.8398,-97.0727,1.808,1111122 
TCOON,ioos:station:TCOON:009:1,2017-05-12T16:18:00Z,27.8398,-97.0727,1.805,1111122 
TCOON,ioos:station:TCOON:009:1,2017-05-12T17:18:00Z,27.8398,-97.0727,1.764,1111122 
TCOON,ioos:station:TCOON:009:1,2017-05-12T18:18:00Z,27.8398,-97.0727,1.768,1111122 
TCOON,ioos:station:TCOON:009:1,2017-05-12T19:30:00Z,27.8398,-97.0727,1.779,1111122 
TCOON,ioos:station:TCOON:009:1,2017-05-12T20:18:00Z,27.8398,-97.0727,1.787,1111122 
TCOON,ioos:station:TCOON:009:1,2017-05-12T21:18:00Z,27.8398,-97.0727,1.748,1111122 
TCOON,ioos:station:TCOON:009:1,2017-05-12T22:18:00Z,27.8398,-97.0727,1.712,1111122 
TCOON,ioos:station:TCOON:009:1,2017-05-14T14:18:00Z,27.8398,-97.0727,1.783,1111122 
TCOON,ioos:station:TCOON:009:1,2017-05-14T15:18:00Z,27.8398,-97.0727,1.722,1111122 